Miscellaneous Local Product
Issued by NWS North Platte, NE

Home | Current Version | Previous Version | Text Only | Print | Product List | Glossary On
Versions: 1 2 3 4 5 6 7 8 9 10 11 12 13 14 15 16 17 18 19 20 21 22 23 24 25 26 27 28 29 30 31 32 33 34 35 36 37 38 39 40 41 42 43 44 45 46 47 48 49 50
492
AXUS43 KLBF 241410
MISLBF


WESTERN AND NORTH CENTRAL NEBRASKA HOURLY WEATHER ROUNDUP
NATIONAL WEATHER SERVICE NORTH PLATTE NE
900 AM CDT SUN JUL 24 2016

NOTE: "FAIR" INDICATES FEW OR NO CLOUDS BELOW 12,000 FEET WITH NO
SIGNIFICANT WEATHER AND/OR OBSTRUCTIONS TO VISIBILITY.

NOTE: STATIONS NOT REPORTING VARIABLES SUCH AS SKY/WEATHER OR
PRESSURE ARE PROVIDED BY RAWS AND APRS NETWORKS AND ARE NOT UNDER
NATIONAL WEATHER SERVICE QUALITY CONTROL.

...OBSERVATIONS IN AND NEAR THE EASTERN PANHANDLE OF NEBRASKA...

CITY           SKY/WX    TMP DP  RH WIND       PRES   REMARKS
PINE RIDGE     CLOUDY    67  53  61 E8        30.17R
CHADRON        CLOUDY    63  48  58 NE3       30.16R
ALLIANCE       PTSUNNY   65  59  81 E12       30.14S
SIDNEY         CLOUDY    72  55  55 SE9       30.18R
CRESCENT LAKE    N/A     68  59  74 SW5         N/A
$$

...OBSERVATIONS IN NORTHERN NEBRASKA AND FAR SOUTHERN SOUTH DAKOTA...

CITY           SKY/WX    TMP DP  RH WIND       PRES   REMARKS
WINNER         FAIR      73  55  53 N8        30.05S
VALENTINE      MOSUNNY   73  52  47 NE13      30.08R
THEDFORD       CLOUDY    73  60  64 NE10      30.10R
AINSWORTH      CLOUDY    67  58  71 NE8       30.07R
O`NEILL        SUNNY     73  61  64 N10       30.06R
ORD            CLOUDY    72  65  78 N7        30.02R
BROKEN BOW     CLOUDY    71  63  75 E7        30.05R
VALENTINE NWR    N/A     70  55  58 NE9G17      N/A
BUTTE            N/A     71  58  64 NE12G21     N/A
HALSEY           N/A     69  60  74 CALM        N/A
EWING            N/A     73  66  80 N6          N/A
$$

...OBSERVATIONS IN SOUTHWEST NEBRASKA AND FAR NORTHEAST COLORADO...

CITY           SKY/WX    TMP DP  RH WIND       PRES   REMARKS
WRAY           FAIR      77  55  47 N6        30.14R
HOLYOKE        FAIR     N/A N/A N/A W3        30.14S
IMPERIAL       MOSUNNY   70  59  68 N8        30.12R
OGALLALA       CLOUDY    76  56  49 NE5       30.13R
NORTH PLATTE   CLOUDY    70  62  76 CALM      30.09R
MCCOOK         PTSUNNY   73  63  70 NE6       30.07R
LEXINGTON      CLOUDY    71  62  74 CALM      30.06R
STAPLETON        N/A     70  62  74 CALM        N/A
GOTHENBURG       N/A     70  58  64 E5          N/A
CALLAWAY         N/A     71  60  67 E9          N/A
$$

...OBSERVATIONS IN CENTRAL LINCOLN COUNTY AREA...

CITY           SKY/WX    TMP DP  RH WIND       PRES   REMARKS
N.P. AIRPORT   CLOUDY    70  62  76 CALM      30.09R
N.P. DOWNTOWN    N/A     72  60  66 CALM        N/A
N.P. SOUTHEAST   N/A     72  59  63 CALM        N/A
N.P. HILLCREST   N/A     71  61  71 NW3         N/A
$$

...SOME OBSERVATIONS FROM AROUND THE REGION...

CITY           SKY/WX    TMP DP  RH WIND       PRES   REMARKS
DENVER         PTSUNNY   72  52  49 NW7       30.17R
LARAMIE        CLOUDY    65  43  44 E5        30.29R
CHEYENNE       CLOUDY    69  51  52 SE7       30.21R
SCOTTSBLUFF    CLOUDY    70  55  59 E10       30.09F
RAPID CITY     CLOUDY    66  55  67 SW3       30.14R
BISMARCK       SUNNY     68  57  68 W7        30.02R
PIERRE         CLOUDY    68  58  70 N6        30.02F
SIOUX FALLS    PTSUNNY   75  65  70 N7        29.99R
OMAHA          CLOUDY    82  69  64 N10       29.92R
GRAND ISLAND   MOSUNNY   75  62  64 NE8       30.02R
KANSAS CITY    MOSUNNY   83  72  69 W9        29.93R
WICHITA        MOSUNNY   86  69  56 S13       29.95R HX  90
OKLAHOMA CITY  MOSUNNY   83  70  64 SW10      29.98R
DALLAS         MOSUNNY   86  71  60 S10       29.96R HX  91
AMARILLO       CLOUDY    81  59  47 SW13      30.08R
DODGE CITY     CLOUDY    77  67  71 SW8       29.98R
HAYS           CLOUDY    77  63  61 NE10      29.95R
GOODLAND       CLOUDY    76  61  59 E15G22    30.08R
$$




USA.gov is the U.S. government's official web portal to all federal, state and local government web resources and services.